Regional Weather Roundup
Issued by NWS

Home | Current Version | Previous Version | Text Only | Print | Product List | Glossary On
Versions: 1 2 3 4 5 6 7 8 9 10 11 12 13 14 15 16 17 18 19 20 21 22 23 24 25 26 27 28 29 30 31 32 33 34 35 36 37 38 39 40 41 42 43 44 45 46 47 48 49 50
000
ASUS43 KDTX 261610
RWRMI
MICHIGAN HOURLY REGIONAL WEATHER ROUNDUP
NATIONAL WEATHER SERVICE DETROIT/PONTIAC MI
1200 PM EDT TUE MAY 26 2020

NOTE: "FAIR" INDICATES FEW OR NO CLOUDS BELOW 12,000 FEET WITH NO
SIGNIFICANT WEATHER AND/OR OBSTRUCTION TO VISIBILITY.

MIZ047>049-052>055-059>063-066>070-074>076-081>083-261700-
SOUTHEAST LOWER MICHIGAN

CITY           SKY/WX    TMP DP  RH WIND       PRES   REMARKS
ALMA           FAIR      83  69  61 CALM      30.07S
ANN ARBOR      FAIR      83  70  64 VRB6      30.08S
BAD AXE        FAIR      83  67  58 S5        30.07F
CARO           FAIR      85  67  54 CALM      30.07S
DETROIT CITY   FAIR      83  68  60 CALM      30.09S
DETROIT        FAIR      83  67  58 S5        30.09S
FLINT          FAIR      86  68  54 S7        30.08R
GROSSE ILE     FAIR      74  69  83 S6        30.09S
HILLSDALE      FAIR      83  66  56 SE6       30.09F
HOWELL         FAIR      84  68  57 SE5       30.09S

CITY           SKY/WX    TMP DP  RH WIND       PRES   REMARKS
JACKSON        FAIR      84  66  54 SE7       30.08S
LAMBERTVILLE   FAIR      84  67  57 CALM      30.08S
LANSING        FAIR      84  68  58 SE6       30.07S
LAPEER         FAIR      84  69  60 CALM      30.08S
MASON          FAIR      84  70  63 SE5       30.08S
MONROE         FAIR      83  70  66 SE7       30.08S
MT. CLEMENS    MOSUNNY   81  70  69 SE8       30.08S
PONTIAC        FAIR      83  67  58 SE10      30.08S
PORT HOPE        N/A     68  61  78 VRB3      30.06S
PORT HURON     FAIR      84  64  51 SE5       30.09S
TRI CITIES     FAIR      84  70  62 SE7       30.07S
MIDLAND        FAIR      85  65  50 S3        30.05S
TROY           FAIR      84  67  55 SE3       30.10S
SAGINAW HB     FAIR      81  68  65 S6        30.06S
$$
MIZ043>046-050>051-056>058-064>065-071>073-077>080-261700-
SOUTHWEST LOWER MICHIGAN

CITY           SKY/WX    TMP DP  RH WIND       PRES   REMARKS
BATTLE CREEK   FAIR      84  66  54 SE9       30.07S
BENTON HARBOR  FAIR      85  68  56 SE8       30.03S
BIG RAPIDS     FAIR      84  65  52 SE7       30.05S
COLDWATER      FAIR      84  66  54 SE7       30.08S
FREMONT        FAIR      86  66  51 SE7       30.03F
HOLLAND        FAIR      86  67  52 S9        30.04S
GRAND RAPIDS   FAIR      85  68  56 SE6       30.05S
IONIA          FAIR      83  63  51 S8        30.06S
KALAMAZOO      FAIR      84  65  52 S9G16     30.06S
LUDINGTON      FAIR      79  65  61 W7        30.02S
MARSHALL       FAIR      83  66  55 S5        30.07F
MOUNT PLEASANT FAIR      85  67  55 S7        30.06R
MUSKEGON       FAIR      88  66  48 S13       30.03S HX  90
SOUTH HAVEN    FAIR      85  67  53 S7        30.03F
$$
MIZ016>042-261700-
NORTHERN LOWER MICHIGAN

CITY           SKY/WX    TMP DP  RH WIND       PRES   REMARKS
ALPENA         FAIR      84  67  56 E10       30.04S
BEAVER ISLAND  FAIR      77  63  61 W10G16    30.03S
BELLAIRE       FAIR      85  61  45 SW5       30.02S
CADILLAC       FAIR      84  58  41 SW6       30.05S
CHARLEVOIX     FAIR     N/A N/A N/A CALM      30.02S
FRANKFORT      FAIR      78  65  66 W8        30.02S
GAYLORD        FAIR      81  62  52 S7        30.06S
GRAYLING       FAIR      85  62  45 W8        30.05S
HARBOR SPRINGS FAIR      83  68  58 CALM      30.02R
MANISTEE       FAIR      85  68  56 SW7       30.01S
OSCODA         FAIR      85  64  47 SE9       30.05S
PELLSTON       FAIR      83  65  54 SW7       30.02S
ROGERS CITY    FAIR      80  68  66 NE5       30.05S
TRAVERSE CITY  FAIR      88  64  44 S7        30.00S
$$
MIZ007>008-015-261700-
EASTERN UPPER MICHIGAN

CITY           SKY/WX    TMP DP  RH WIND       PRES   REMARKS
KINROSS        FAIR      79  67  66 S8        30.02S
MACKINAC ISLAN FAIR      69  55  61 CALM      30.02F
NEWBERRY       FAIR      77  63  61 S15       30.01R
S. S. MARIE    FAIR      79  65  62 VRB6      30.00F
MUNISING         N/A     82  64  54 S12G21    29.95S
$$
MIZ004>006-011>014-085-261700-
CENTRAL UPPER MICHIGAN

CITY           SKY/WX    TMP DP  RH WIND       PRES   REMARKS
ESCANABA       FAIR      66  57  72 SE7       30.00S
MENOMINEE      FAIR      79  66  64 SW9       29.99S
SAWYER-GWINN   MOSUNNY   77  64  65 S10       29.98F
$$
MIZ001>003-009>011-084-261700-
WESTERN UPPER MICHIGAN

CITY           SKY/WX    TMP DP  RH WIND       PRES   REMARKS
IRON MOUNTAIN  FAIR      79  67  66 S8        29.97F
HOUGHTON         N/A     73  64  73 S10       29.92F
COPPER HARBOR    N/A     72  64  76 SW8       29.91F
IRONWOOD       FAIR      76  64  66 S13       29.90F
$$

ABBREVIATIONS USED IN REMARKS
   TC - TEMPERATURE IN CELSIUS
  WCI - WIND CHILL INDEX
   HX - HEAT INDEX
  VSB - VISIBILITY





USA.gov is the U.S. government's official web portal to all federal, state and local government web resources and services.